Voltar ao catálogo

METEOR 1-25

AtivoMeteoPO
NORAD 8845·PAYLOAD·🇷🇺 Russia

Lançado May 15, 1976 de Plesetsk Cosmodrome

Loading…

Próximas Passagens (próximas 24 horas)

TLE

AtualizadoSource: Space-Track

Época: Sep 14, 2026, 22:07 UTC

1 08845U 76043A   26257.92215040 -.00000083  00000-0 -52337-4 0  9997
2 08845  81.2610 228.3423 0040303  38.1653 322.2360 14.11845622737587

Acompanhe METEOR 1-25 em tempo real com AllMySat

Download on the App Store